Location: Kalberh�ni
(46.4610°N, 7.2453°E)
Time: 13:51:28
(UTC+00:00)

Lacrosse 4 Rocket - Pass Details

Date: 19 October 2021
Orbit: 537 x 619 km, 68.0° (Epoch: 04 December)

Event Time Altitude Azimuth Distance (km) Brightness Sun altitude
Rises 18:43:52 0° 331° (NNW) 2,799 5.5 -22.5°
Reaches altitude 10° 18:46:07 10° 335° (NNW) 1,910 4.5 -22.9°
Enters shadow 18:49:38 51° 13° (NNE) 753 1.9 -23.5°
